Starlink 32507

operational
NORAD ID: 62132 Int'l Des: 2024-222 Owner: SPXS Country: US Constellation: starlink
LEOCIRCULAR

Starlink 32507について

説明を読み込み中...

リアルタイム位置

3D地球を読み込み中...

次回通過

高度履歴

Altitude vs Time

uPlot chart will show altitude changes over time

軌道要素

1 62132U 24222U 26036.12626273 .00046095 00000-0 16728-2 0 9992
2 62132 42.9999 319.6732 0001451 272.4685 87.6000 15.27607215 67622
Epoch: Feb 5, 2026 • Age: 7 hours

現在のステータス

高度 486.7 km
速度 7.63 km/s
衛星直下点 41.76°N, 110.16°E
打ち上げ日 Nov 27, 2024
運用期間 1.1 years
タイプ internet

技術仕様

分類 Payload
質量 730.00 kg
乾燥質量 700.00 kg
総質量 730.00 kg
長さ 0.30 m
直径 4.10 m
スパン 29.00 m
形状 Box + pan
製造者 SPXS
バスタイプ Starlink V2M
フェーズステータス In Orbit
所有者/国 SPXS/US

大規模コンステレーション

Loading constellations...